Location: Canazei
(46.4667°N, 11.7667°E)
Time: 05:01:07
(UTC+00:00)

Envisat - Pass Details

Date: 03 October 2021
Orbit: 764 x 766 km, 98.2° (Epoch: 27 October)

Event Time Altitude Azimuth Distance (km) Brightness Sun altitude
Rises 03:58:40 0° 18° (NNE) 3,242 6.6 -13.8°
Reaches altitude 10° 04:01:05 10° 24° (NNE) 2,311 5.9 -13.4°
Maximum altitude 04:05:59 47° 99° (E) 1,006 4.1 -12.5°
Drops below altitude 10° 04:10:51 10° 173° (S) 2,294 5.5 -11.7°
Sets 04:13:14 0° 179° (S) 3,215 6.2 -11.3°
